Weather History for Rome, OR

Change the Weather History Date:

Monday, January 14, 2013

  Actual Average Record
Temperature  
Mean Temperature 11 °F 29 °F  
Max Temperature 22 °F 38 °F 59 °F (2012)
Min Temperature 0 °F 20 °F -2 °F (1947)
Degree Days  
Heating Degree Days 54 36  
Month to date heating degree days 740 508  
Since 1 July heating degree days 3097 3255  
Cooling Degree Days 0 0  
Month to date cooling degree days 0 0  
Year to date cooling degree days 0 0  
Moisture  
Dew Point 5 °F    
Average Humidity 74    
Maximum Humidity 87    
Minimum Humidity 61    
Precipitation  
Precipitation 0.00 in 0.02 in 0.44 in (1941)
Month to date precipitation 0.22 0.33  
Year to date precipitation 0.22 0.33  
Sea Level Pressure  
Sea Level Pressure 30.50 in    
Wind  
Wind Speed 14 mph (SSE)    
Max Wind Speed 26 mph    
Max Gust Speed 33 mph    
T = Trace of Precipitation, MM = Missing Value Source: NWS Daily Summary

Daily Weather History Graph

Daily Weather History Graph

Search for Another Location

Airport:

Trip Planner

Search our weather history database for the weather conditions in past years. The results will help you decide how hot, cold, wet, or windy it might be!

Date:

Astronomy

Jan. 14, 2013 Rise Set
Actual Time 7:18 AM PST 4:42 PM PST
Civil Twilight 6:47 AM PST 5:13 PM PST
Nautical Twilight 6:12 AM PST 5:48 PM PST
Astronomical Twilight 5:39 AM PST 6:22 PM PST
Moon 8:49 AM PST (1/14) 8:39 PM PST (1/14)
Length of Visible Light 10h 26m
Length of Day
9h 23m
Waxing Crescent, 12% of the Moon is Illuminated
Jan 14
Waxing Crescent
Jan 18
First Quarter
Jan 26
Full
Feb 3
Last Quarter
Feb 9
New

Hourly Weather History & Observations

Time (PST) Temp. Windchill Dew Point Humidity Pressure Visibility Wind Dir Wind Speed Gust Speed Precip Events Conditions
12:52 AM 1.9 °F -7.6 °F -2.9 °F 80% 30.47 in - South 4.6 mph - N/A   Unknown
1:52 AM 1.0 °F -11.7 °F -4.0 °F 79% 30.48 in - South 6.9 mph - N/A   Unknown
2:52 AM 3.0 °F -9.3 °F -2.0 °F 80% 30.49 in - South 6.9 mph - N/A   Unknown
3:52 AM 6.1 °F -5.6 °F -0.0 °F 76% 30.49 in - SSE 6.9 mph - N/A   Unknown
4:52 AM 9.0 °F -2.2 °F 3.0 °F 77% 30.48 in - SSE 6.9 mph - N/A   Unknown
5:52 AM 8.1 °F -0.5 °F 1.9 °F 76% 30.50 in - SSW 4.6 mph - N/A   Unknown
6:52 AM 10.9 °F -1.8 °F 3.9 °F 73% 30.48 in - South 9.2 mph - N/A   Unknown
7:52 AM 12.0 °F 5.9 °F 3.9 °F 70% 30.51 in - South 3.5 mph - N/A   Unknown
8:52 AM 12.0 °F 0.5 °F 5.0 °F 73% 30.51 in - South 8.1 mph - N/A   Unknown
9:52 AM 15.1 °F 2.5 °F 5.0 °F 64% 30.51 in - SSE 10.4 mph - N/A   Unknown
10:52 AM 15.1 °F 0.5 °F 7.0 °F 70% 30.52 in - SE 13.8 mph - N/A   Unknown
11:52 AM 16.0 °F 0.1 °F 8.1 °F 71% 30.48 in - SE 17.3 mph - N/A   Unknown
12:52 PM 17.1 °F 1.5 °F 9.0 °F 71% 30.49 in - SE 17.3 mph 24.2 mph N/A   Unknown
1:52 PM 21.0 °F 10.6 °F 10.9 °F 65% 30.49 in - South 9.2 mph - N/A   Unknown
2:52 PM 19.9 °F 7.3 °F 10.9 °F 68% 30.50 in - SSE 12.7 mph - N/A   Unknown
3:52 PM 18.0 °F 2.6 °F 10.0 °F 71% 30.49 in - SE 17.3 mph 23.0 mph N/A   Unknown
4:52 PM 16.0 °F -0.4 °F 9.0 °F 74% 30.48 in - SE 18.4 mph - N/A   Unknown
5:52 PM 15.1 °F -2.5 °F 8.1 °F 74% 30.48 in - SE 20.7 mph 29.9 mph N/A   Unknown
6:52 PM 16.0 °F -2.1 °F 9.0 °F 74% 30.49 in - SE 23.0 mph 33.4 mph N/A   Unknown
7:52 PM 15.1 °F -2.9 °F 8.1 °F 74% 30.50 in - SE 21.9 mph 31.1 mph N/A   Unknown
8:52 PM 15.1 °F -2.9 °F 7.0 °F 70% 30.50 in - SE 21.9 mph 28.8 mph N/A   Unknown
9:52 PM 14.0 °F -3.9 °F 7.0 °F 74% 30.50 in - SE 20.7 mph - N/A   Unknown
10:52 PM 14.0 °F -5.1 °F 6.1 °F 71% 30.54 in - SE 24.2 mph 31.1 mph N/A   Unknown
11:52 PM 14.0 °F -4.7 °F 6.1 °F 71% 30.55 in - SE 23.0 mph 29.9 mph N/A   Unknown